パンスターズ彗星

426P/PanSTARRS (2023)

English version
Home page
Updated on October 6, 2021

---------------------------------------------------------------------

・ プロフィール

符号 426P/2021 K4
検出日 2021年5月17日
検出光度 22.2等
検出者 M. Micheli, H. H. Hsieh, J. Chavez (Gemini South telescope at Cerro Pachon, Chile)

・ 軌道要素

Epoch 2023 Sept. 13.0 TT = JDT 2460200.5                                        
T 2023 Sept. 12.14497 TT                                Rudenko                 
q   2.6737769            (2000.0)            P               Q                  
n   0.17294561     Peri.  118.77039     +0.73383660     -0.60943982             
a   3.1905314      Node   280.42870     +0.46652220     +0.77324094             
e   0.1619650      Incl.   17.76733     +0.49380246     +0.17516150             
P   5.70                                                                        
From 98 observations 2017 Oct. 1-2021 June 13, mean residual 0".4.              

・ 光度変化

        m1 = 14.0 + 5 logΔ + 10.0 log r

---------------------------------------------------------------------

軌道要素はM.P.E.C. 2021-P78に掲載されたものです。
光度グラフはComet for Windowsで作成したものです。

---------------------------------------------------------------------

Copyright(C) Seiichi Yoshida (comet@aerith.net). All rights reserved.